CAPE
2 2 2 7 1 3 5 6 1 4 3 3 5 1 1 0 1 0 1 1 5 1 2 1 1 0 0 0 0 0 431 15 0 0 0 0 0 34 26 24 208 227 221 333 453 393 464
0 0 5 5 4 2 6 4 3 3 5 6 0 0 1 0 0 0 1 2 2 3 1 1 1 0 0 0 0 0 0 0 0 0 0 0 7 0 107 164 98 216 367 367 541 322 411
0 0 0 0 2 4 2 0 0 3 7 1 2 1 1 0 1 1 4 3 2 1 0 2 0 0 0 0 0 0 0 0 0 0 0 1 1 0 89 23 74 203 41 30 54 483 107
0 0 0 0 0 0 0 0 0 1 4 6 2 0 1 1 1 3 1 1 1 0 0 0 0 0 0 0 0 0 0 0 0 0 0 2 0 0 12 1 21 224 31 73 4 496 300
0 0 0 3 0 0 0 0 0 2 1 4 1 1 1 2 1 1 0 0 0 0 0 0 0 0 0 0 0 0 0 0 0 0 0 0 0 0 52 110 169 56 104 31 331 346 812
0 0 0 1 0 0 0 0 0 2 1 3 3 2 1 1 0 0 0 0 0 0 0 0 0 0 0 0 0 0 0 0 0 0 0 0 0 19 44 102 489 54 0 20 25 241 232
15 0 0 0 0 0 0 0 0 0 1 1 3 2 1 0 0 0 0 0 0 0 0 0 0 0 0 0 0 0 0 0 0 0 0 0 7 1 12 54 144 60 108 80 29 116 88
30 7 0 0 0 0 0 0 0 0 0 2 1 1 0 0 0 0 0 0 0 0 0 0 0 0 0 0 0 0 0 0 0 0 0 11 16 6 100 158 183 117 53 18 89 204 180
9 2 0 0 0 0 0 0 0 0 0 0 0 0 0 0 0 0 0 0 0 0 0 0 0 0 0 0 0 0 0 0 0 0 0 23 35 154 197 49 180 283 130 312 99 189 128
0 0 0 0 0 0 0 0 0 0 0 0 0 0 0 0 0 0 0 0 0 0 0 0 0 0 0 0 0 0 0 0 0 0 0 7 121 147 172 21 134 285 173 190 247 104 228
1 3 1 0 0 0 0 0 0 0 0 0 0 0 0 0 0 0 0 0 0 0 0 0 0 0 0 0 0 0 0 0 0 0 2 93 127 220 96 34 142 200 284 132 74 183 106
0 0 0 0 0 0 0 0 0 0 0 0 0 0 0 0 0 0 0 0 0 0 0 0 0 0 0 0 0 0 0 0 0 0 0 74 89 102 23 17 41 108 89 46 196 48 88
0 0 0 0 0 0 0 0 0 0 0 0 0 0 0 0 0 0 0 0 0 0 0 0 0 0 0 0 0 0 0 0 0 0 0 0 43 177 31 34 83 95 55 98 46 614 138
0 0 1 0 0 0 0 0 0 0 0 0 0 0 0 0 0 0 0 0 0 0 0 0 0 0 0 0 0 0 0 0 0 0 0 2 4 22 70 46 15 47 105 140 146 103 161
1 8 10 7 1 0 0 0 0 0 0 0 0 0 0 0 0 0 0 0 0 0 0 0 0 0 0 0 0 0 0 0 0 0 0 34 24 29 29 62 42 22 0 0 13 39 15
26 21 18 18 10 3 0 0 0 0 0 0 0 0 0 0 0 0 0 0 0 0 0 0 0 0 0 0 0 0 0 0 0 0 0 0 1 16 34 15 2 8 10 0 46 248 130
27 23 20 20 10 10 2 0 0 0 0 0 0 0 0 0 0 0 0 0 0 0 0 0 0 0 0 0 0 0 0 0 0 0 0 0 0 0 0 0 0 0 0 0 0 106 23
25 23 14 7 6 10 1 2 0 0 0 0 0 0 0 0 0 0 0 0 0 0 0 0 0 0 0 0 0 0 0 0 0 0 0 0 0 0 0 0 0 0 0 0 0 9 12
20 22 17 9 6 14 4 0 0 0 0 0 0 0 1 0 0 0 0 0 0 0 0 0 0 0 0 0 0 0 0 0 0 0 0 0 0 0 0 0 0 0 0 0 0 1 277
6 7 10 7 20 22 3 0 0 0 0 0 0 0 15 0 0 0 0 0 0 0 0 0 0 0 0 0 0 0 0 0 0 0 0 0 0 0 0 3 2 0 0 0 0 0 0
9 7 7 13 13 2 0 0 0 0 0 0 0 27 90 52 0 0 0 0 0 0 0 0 0 0 0 0 0 0 0 0 0 0 0 0 0 0 0 0 0 0 0 0 0 0 0
7 5 5 8 13 5 3 0 0 0 0 0 3 115 71 73 2 0 0 0 0 0 0 0 0 0 0 0 0 0 0 0 0 0 0 0 0 0 0 0 0 0 0 0 0 0 0
2 4 2 4 11 8 7 4 0 0 0 0 17 2 7 26 28 0 0 0 0 0 0 0 0 0 0 0 0 0 0 0 0 0 0 0 0 0 0 0 0 0 0 0 0 0 0
3 0 1 2 4 9 8 2 1 0 0 0 0 0 38 113 61 39 6 9 0 0 0 0 0 0 0 0 0 0 10 13 27 5 0 0 0 0 0 3 0 0 7 3 1 2 1
7 0 0 0 1 6 6 2 1 0 0 0 0 0 50 116 157 211 101 21 20 8 3 19 2 18 2 0 0 1 0 1 4 10 0 6 21 30 40 0 0 0 0 43 32 4 509
14 6 0 0 0 0 1 1 0 2 0 0 0 12 21 58 164 129 110 87 71 71 18 3 65 3 19 0 0 58 0 0 4 0 0 0 10 8 8 0 2 4 121 71 4 119 803
15 15 8 1 0 0 1 1 1 2 0 0 0 0 57 88 77 115 32 104 129 131 27 27 11 0 71 2 0 4 0 23 15 2 23 11 20 11 22 4 0 117 284 169 51 720 903
9 24 18 8 0 0 1 1 1 1 0 0 0 1 23 33 0 46 29 92 75 71 318 165 19 6 85 30 11 21 59 70 67 26 266 188 39 28 1 82 32 449 491 855 1001 797 758
5 28 20 18 12 0 0 1 1 0 0 0 0 2 2 0 1 0 0 0 0 10 118 93 86 25 38 0 34 62 42 99 72 96 68 18 8 71 108 388 428 396 272 222 316 548 670
CIN
0 0 0 0 0 0 0 0 0 0 0 0 0 0 0 0 0 0 0 0 0 0 0 0 0 0 0 0 0 0 -689 -549 0 0 0 0 0 -1 -100 -41 -54 -54 -55 -2 -1 0 -3
0 0 0 0 0 0 0 0 0 0 0 0 0 0 0 0 0 0 0 0 0 0 0 0 0 0 0 0 0 0 0 0 0 0 0 0 -4 0 -28 -28 -113 -61 -96 -84 -7 0 -56
0 0 0 0 0 -1 -2 0 0 0 0 0 0 0 0 0 0 0 0 0 0 0 0 0 0 0 0 0 0 0 0 0 0 0 0 -1 0 0 -17 -15 -126 -281 -443 -301 -102 -4 -299
0 0 0 0 0 0 0 0 0 0 0 0 0 0 0 0 0 0 0 0 0 0 0 0 0 0 0 0 0 0 0 0 0 0 0 0 0 0 -36 -31 -109 -37 -259 -294 -49 -21 -198
0 0 0 0 0 0 0 0 0 0 0 0 0 0 0 0 0 0 0 0 0 0 0 0 0 0 0 0 0 0 0 0 0 0 0 0 0 0 -17 -22 -37 -229 -204 -171 -112 -18 -9
0 0 0 0 0 0 0 0 0 0 0 0 0 0 0 0 0 0 0 0 0 0 0 0 0 0 0 0 0 0 0 0 0 0 0 0 0 -9 -103 -18 -155 -173 -19 -70 -266 -7 -1
-1 0 0 0 0 0 0 0 0 0 -1 0 0 -1 0 0 0 0 0 0 0 0 0 0 0 0 0 0 0 0 0 0 0 0 0 0 -37 -15 -329 -223 -43 -132 -141 -35 -168 -13 -12
0 -4 0 0 0 0 0 0 0 0 0 -4 -1 0 0 0 0 0 0 0 0 0 0 0 0 0 0 0 0 0 0 0 0 0 0 -88 -12 -63 -77 -16 -36 -108 -190 -86 -39 -41 -32
-3 -3 0 0 0 0 0 0 0 0 0 0 0 0 0 0 0 0 0 0 0 0 0 0 0 0 0 0 0 0 0 0 0 0 0 -48 -72 -25 -1 -8 -2 -29 -178 -89 -76 -13 -40
0 0 0 0 0 0 0 0 0 0 0 0 0 0 0 0 0 0 0 0 0 0 0 0 0 0 0 0 0 0 0 0 0 0 0 -1 -86 -49 -1 -17 -3 -5 -71 -12 -2 0 -1
0 0 0 0 0 0 0 0 0 0 0 0 0 0 0 0 0 0 0 0 0 0 0 0 0 0 0 0 0 0 0 0 0 0 -2 -1 -4 -7 0 -14 -2 -2 -6 -20 -1 -16 -82
0 0 0 0 0 0 0 0 0 0 0 0 0 0 0 0 0 0 0 0 0 0 0 0 0 0 0 0 0 0 0 0 0 0 0 -3 -2 -2 -53 -79 -27 -27 -26 -23 -65 -115 -39
0 0 0 0 0 0 0 0 0 0 0 0 0 0 0 0 0 0 0 0 0 0 0 0 0 0 0 0 0 0 0 0 0 0 0 -3 -8 -4 -46 -54 -12 -25 -19 -8 -203 -86 -46
0 0 -4 0 0 0 0 0 0 0 0 0 0 0 0 0 0 0 0 0 0 0 0 0 0 0 0 0 0 0 0 0 0 0 0 0 0 -14 -19 -49 -72 -44 -20 -3 -8 -55 -33
0 -1 -2 -4 -10 0 0 0 0 0 0 0 0 0 0 0 0 0 0 0 0 0 0 0 0 0 0 0 0 0 0 0 0 0 0 -1 -1 -3 -23 -5 -51 -79 -11 0 -3 -4 -17
-2 -3 -5 -9 -12 -15 0 0 0 0 0 0 0 0 0 0 0 0 0 0 0 0 0 0 0 0 0 0 0 0 0 0 0 0 0 0 0 -5 -23 -32 -11 -75 -47 0 -14 -24 -127
-2 -4 -5 -1 -6 -18 -20 0 0 0 0 0 0 0 0 0 0 0 0 0 0 0 0 0 0 0 0 0 0 0 0 0 0 0 0 0 0 0 0 0 0 0 0 0 0 -64 -226
0 0 -1 -4 -8 -20 -10 -12 0 0 0 0 0 0 0 0 0 0 0 0 0 0 0 0 0 0 0 0 0 0 0 0 0 0 0 0 0 0 0 0 0 0 0 0 0 -25 -5
0 -2 -5 -12 -22 -18 -14 -5 0 0 0 0 0 0 0 0 0 0 0 0 0 0 0 0 0 0 0 0 0 0 0 0 0 0 0 0 0 0 0 0 0 0 0 0 0 0 -1
0 0 0 -26 -22 -11 -30 0 0 0 0 0 0 0 0 0 0 0 0 0 0 0 0 0 0 0 0 0 0 0 0 0 0 0 0 0 0 0 0 -1 -1 -1 0 0 0 0 0
0 0 0 -11 -10 -29 0 0 0 0 0 0 0 -27 -8 0 0 0 0 0 0 0 0 0 0 0 0 0 0 0 0 0 0 0 0 0 0 0 0 0 0 0 0 0 0 0 0
0 0 0 0 -14 0 0 0 0 0 0 0 -5 0 -5 -35 -1 0 0 0 0 0 0 0 0 0 0 0 0 0 0 0 0 0 0 0 0 0 0 0 0 0 0 0 0 0 0
0 0 0 0 0 0 0 0 0 0 0 0 -11 -11 -30 -60 -1 0 0 0 0 0 0 0 0 0 0 0 0 0 0 0 0 0 0 0 0 0 0 0 0 0 0 0 0 0 0
-2 0 0 0 0 0 0 0 0 0 0 0 0 0 -23 0 -2 0 0 0 0 0 0 0 0 0 0 0 0 0 -32 0 -1 -2 0 0 0 0 0 -2 0 0 -2 -2 -1 -1 -1
-3 0 0 0 0 0 0 0 0 0 0 0 0 0 -20 -26 -13 -11 -4 0 0 -7 -6 -2 -2 -11 -2 0 0 -35 -1 0 -1 -7 0 -4 -1 -1 0 0 0 0 0 -5 -28 0 -26
-3 -5 0 0 0 0 0 0 0 0 0 0 0 -7 -27 -49 -40 -20 -33 -1 0 0 -2 -1 -29 -21 -35 0 0 -23 0 0 -1 0 0 0 -3 0 -2 0 0 -5 -4 -23 -34 -2 -54
-5 -4 -5 -1 0 0 0 0 0 0 0 0 0 -1 -41 -22 -27 -24 -66 -19 -6 -21 0 -2 -9 0 -18 -2 0 0 0 0 -1 -1 -1 -1 -10 -1 -2 0 0 -5 -9 -25 -8 -22 -50
-12 -5 -6 -5 0 0 0 0 0 0 0 0 0 -1 -21 -13 0 -63 -31 -18 -59 -100 -34 -73 -2 -25 -3 -2 -1 -1 -1 -1 -1 -3 -2 -3 -2 -1 0 -1 -1 -44 -21 -6 -18 -24 -64
-15 -3 -4 -5 -2 0 0 0 0 0 0 0 0 -6 0 0 -1 0 0 0 0 -30 -61 -76 -34 -3 -3 0 -2 -1 -5 -1 -3 -1 -6 -7 -7 -5 -4 -2 -23 -31 -33 -57 -48 -41 -62
Wind_Speed
10 12 14 13 15 16 16 17 19 18 18 18 20 21 20 21 21 22 22 22 21 22 20 17 15 12 9 9 10 11 9 6 8 11 14 17 20 7 16 14 13 8 20 9 7 8 9
10 12 13 13 14 16 15 16 17 17 18 19 21 21 21 22 22 22 24 24 23 21 19 16 12 8 7 11 6 15 12 10 14 15 16 19 18 8 20 11 12 13 22 18 5 8 20
9 10 11 11 15 15 14 15 16 17 18 20 21 22 22 23 23 23 23 23 22 21 18 13 7 7 11 13 2 11 15 16 16 16 17 17 10 14 5 33 23 31 16 25 14 5 6
9 10 12 12 12 13 14 15 16 17 19 19 22 23 23 24 24 24 24 24 22 20 15 9 6 9 9 15 5 7 14 15 16 18 17 18 6 16 9 21 16 13 9 2 17 11 14
9 10 10 12 12 13 14 15 16 17 20 19 23 23 24 24 24 24 24 24 23 17 11 3 8 8 14 7 12 11 14 17 16 14 14 11 11 17 7 4 6 13 7 10 12 15 17
10 9 10 12 13 13 14 15 15 16 20 19 21 24 25 24 25 24 27 24 6 11 8 10 12 9 15 11 12 14 13 14 15 15 15 13 14 6 17 9 2 7 15 25 28 6 9
11 9 11 12 13 13 14 15 15 16 17 21 21 22 24 26 27 21 16 4 6 7 13 12 12 13 10 12 10 9 14 16 15 13 16 17 14 19 28 32 17 12 12 22 22 8 7
14 8 10 12 13 14 15 15 15 16 17 18 21 24 24 28 29 26 8 8 8 8 9 22 18 21 7 8 9 12 15 15 16 18 18 19 14 11 21 26 18 14 3 17 13 7 7
9 8 10 12 13 14 15 16 16 16 17 18 19 22 25 29 32 12 11 8 7 9 8 14 16 13 11 9 13 14 19 19 17 18 18 20 13 15 11 7 10 15 15 11 20 3 4
10 9 11 12 14 14 15 16 17 17 17 18 18 21 23 30 8 11 10 4 7 5 7 14 17 13 17 11 14 12 18 18 15 18 21 19 17 18 13 6 11 6 14 13 17 12 5
9 11 12 13 14 15 15 16 18 18 18 18 18 19 20 7 13 10 11 10 8 7 7 21 18 11 11 14 8 14 17 19 21 14 17 14 17 22 9 11 6 3 11 9 11 18 12
10 11 12 13 15 16 16 16 17 18 19 19 19 18 17 5 9 16 13 10 9 7 7 10 11 13 16 19 10 16 16 20 15 16 17 19 11 8 6 9 8 5 12 14 12 12 13
12 12 13 14 15 16 16 16 17 18 19 20 21 21 11 9 10 13 11 8 7 11 11 15 19 18 20 17 15 14 17 20 15 14 17 13 17 7 6 9 10 6 14 9 8 5 8
14 13 14 14 15 15 16 16 17 18 18 20 23 31 9 10 11 12 9 8 10 13 13 17 13 18 19 18 18 16 16 17 18 19 12 14 10 16 9 13 12 17 16 9 7 8 3
16 15 13 14 14 15 15 15 16 16 17 18 28 9 9 10 13 9 8 11 9 13 14 9 15 19 18 18 15 15 17 17 18 19 19 13 15 12 16 13 10 13 12 14 12 16 7
14 14 14 14 14 15 15 14 14 14 18 13 12 11 13 14 11 8 9 16 20 10 15 9 14 14 17 20 17 18 17 17 18 18 17 17 12 7 10 7 7 13 13 13 9 7 9
17 17 18 17 17 16 13 12 11 14 20 19 7 7 9 11 9 8 12 19 18 8 3 5 9 13 16 15 18 12 14 14 17 16 15 13 14 6 9 3 8 10 11 10 14 7 10
17 16 17 18 18 17 10 10 10 12 22 11 8 8 10 9 9 10 14 21 21 15 8 9 14 15 16 16 18 16 13 14 4 13 12 11 10 9 7 10 8 11 17 12 6 9 10
17 17 19 19 18 14 7 6 9 10 12 8 6 12 10 9 10 13 18 22 24 10 10 13 14 15 7 13 13 15 13 10 11 8 1 9 8 9 11 12 9 7 9 12 15 12 13
17 19 21 23 11 6 4 6 8 10 11 5 7 6 7 8 13 20 16 20 22 6 19 13 14 15 15 13 11 13 8 7 7 2 7 3 11 10 11 5 3 15 9 8 11 10 11
17 18 20 21 12 9 7 7 8 9 9 5 6 9 10 8 14 18 20 16 14 15 17 16 13 16 14 13 12 11 9 13 5 7 3 9 14 13 13 13 7 9 7 7 9 10 13
15 16 17 19 13 9 9 9 9 11 15 6 7 8 8 16 15 20 18 15 20 17 16 18 12 16 13 14 15 12 12 12 8 7 10 12 11 12 11 14 13 11 15 9 13 9 6
14 15 16 16 16 13 10 9 9 12 12 7 6 13 6 15 14 16 16 15 13 13 18 19 17 17 16 16 14 13 12 13 12 13 11 13 11 10 12 9 13 15 9 8 13 14 8
12 13 14 15 18 11 10 9 10 11 10 8 10 11 8 12 12 8 13 15 18 19 13 12 19 16 12 3 4 4 14 11 5 18 16 13 11 4 8 10 11 8 8 10 9 10 12
11 12 12 14 14 16 12 12 13 12 11 10 10 9 8 12 14 19 19 15 11 2 6 9 10 3 2 6 6 8 5 4 6 6 11 8 7 8 9 11 12 13 11 8 15 8 17
10 10 11 12 12 13 13 13 14 14 13 9 11 9 6 7 8 21 21 7 9 6 11 19 8 2 8 6 8 12 10 8 8 8 13 12 8 6 8 12 14 14 9 8 8 3 15
10 10 10 10 11 12 13 13 15 16 15 9 8 14 6 10 13 19 8 11 4 7 12 10 4 8 12 10 11 10 13 12 14 17 14 10 7 12 8 10 12 9 12 8 7 6 10
10 11 9 10 10 10 12 13 14 16 16 10 10 11 6 9 11 20 19 10 13 7 7 3 11 13 11 12 11 8 6 7 12 5 5 9 9 6 10 13 12 12 5 6 7 8 9
9 10 9 10 7 9 10 12 14 15 16 14 6 9 5 8 11 19 19 15 8 9 5 9 9 10 2 10 10 7 4 2 4 7 9 9 9 7 6 4 4 4 4 6 7 7 8
Wind_Direction
18 6 5 5 1 358 353 350 349 348 344 339 341 340 339 333 329 326 324 321 315 315 311 307 304 310 287 220 248 141 157 141 209 217 255 268 272 296 42 100 91 268 271 92 110 107 102
13 5 357 7 1 357 352 344 340 340 339 341 341 339 337 333 327 325 322 320 316 312 307 302 293 297 250 250 133 148 179 178 225 222 248 255 280 344 165 120 121 43 23 8 333 129 63
358 4 352 356 358 351 343 340 337 338 341 343 341 338 334 330 327 325 318 312 310 308 303 298 271 251 256 262 1 161 184 201 213 242 247 255 311 306 151 43 315 93 15 325 311 43 108
345 349 349 340 341 340 337 336 338 339 340 340 339 336 332 329 325 319 312 309 307 302 298 280 226 239 260 202 281 195 190 200 218 235 257 287 284 285 273 151 226 44 125 94 276 255 136
335 343 345 336 339 337 333 334 335 339 342 339 338 333 330 325 320 317 313 306 300 291 285 198 214 232 253 123 214 219 195 204 212 238 244 289 275 273 95 78 66 39 12 257 289 239 163
323 338 341 336 335 335 332 333 335 338 340 338 333 331 329 322 319 322 317 295 288 303 219 220 260 248 243 211 197 204 204 227 215 224 233 238 249 289 7 326 184 195 179 244 248 117 223
308 327 339 333 332 331 329 330 330 331 337 338 333 328 327 320 317 325 331 267 205 200 225 209 194 233 144 200 182 211 196 217 227 225 227 231 253 120 205 235 226 144 265 288 325 143 281
301 319 335 330 329 328 327 327 327 325 327 333 334 330 324 321 317 317 273 257 36 345 287 223 266 217 315 147 195 216 205 209 221 222 220 245 234 123 177 220 192 119 300 299 329 4 52
325 332 331 328 327 327 326 326 325 323 322 324 326 327 325 322 317 291 251 341 328 315 259 222 214 230 205 240 232 193 199 208 220 230 224 240 358 321 247 216 152 149 150 243 251 49 10
327 329 327 326 326 327 326 326 324 321 320 321 321 326 328 331 298 339 281 32 319 330 271 172 198 220 214 210 235 203 187 208 217 224 238 239 179 227 252 272 282 135 186 240 278 311 309
335 337 332 325 324 324 325 324 322 319 318 318 320 323 324 321 308 291 12 322 327 265 251 151 168 185 176 200 138 181 180 219 238 218 238 246 185 203 259 268 6 31 171 274 308 41 48
341 337 329 322 320 318 319 319 319 316 316 315 316 318 333 303 219 259 291 293 269 232 242 149 138 180 183 213 219 158 181 223 236 253 248 266 246 178 250 265 280 341 301 276 60 28 354
339 330 321 316 311 311 315 317 315 315 315 313 313 305 297 293 253 348 319 265 219 243 151 150 169 185 194 195 211 184 190 206 224 229 243 235 254 244 212 259 266 231 258 271 53 10 222
327 321 315 314 309 308 311 312 314 314 315 316 315 306 247 230 239 264 262 233 242 225 199 141 169 184 198 192 221 175 196 210 222 236 229 227 215 248 210 239 279 295 301 306 333 187 212
318 316 313 310 309 308 308 308 312 314 318 326 311 294 231 243 218 242 240 220 222 250 236 142 168 176 200 204 211 194 209 218 213 229 248 253 216 265 214 223 198 265 268 279 290 296 139
333 328 328 325 320 316 309 307 314 325 321 338 319 294 257 214 163 214 231 243 237 301 323 171 209 195 195 209 207 188 200 216 232 213 247 270 282 253 217 179 268 278 311 307 300 43 4
340 338 334 329 319 314 308 314 328 334 325 324 261 263 121 138 185 222 227 233 243 280 320 291 247 199 223 203 195 204 226 220 211 228 216 257 272 294 240 177 265 280 231 252 277 149 168
338 334 327 322 316 311 312 323 345 348 334 297 279 270 147 167 203 220 229 240 257 265 221 261 292 284 227 212 194 231 213 211 173 237 189 234 260 240 210 213 242 256 275 252 247 260 240
336 334 330 323 311 305 314 348 353 359 4 311 267 256 162 207 225 222 227 246 247 245 227 224 258 267 277 246 198 212 206 49 144 233 292 222 234 264 264 204 166 227 259 278 294 268 278
337 337 334 331 313 318 23 10 359 357 350 286 275 251 190 204 245 252 234 221 239 193 256 229 237 252 262 262 187 204 183 120 125 288 3 332 266 237 259 246 272 184 202 232 270 281 283
341 340 341 347 14 20 14 0 351 349 350 284 246 254 353 260 215 240 251 242 216 230 229 259 232 250 219 242 224 212 203 129 196 124 239 238 246 262 274 299 296 286 279 231 267 273 284
341 343 345 347 358 358 351 349 350 344 324 250 285 342 324 289 229 212 244 256 213 221 202 234 233 231 234 232 244 193 224 156 184 157 224 221 251 280 291 300 316 307 280 259 287 247 269
340 344 347 345 351 350 348 349 352 355 330 277 353 331 330 281 273 208 226 230 250 237 218 202 223 244 228 232 242 231 244 179 187 183 215 225 229 247 265 264 260 251 244 261 278 279 241
333 339 345 347 349 341 344 359 357 1 358 310 299 308 286 275 264 253 240 227 234 234 245 198 219 218 248 40 8 281 283 189 197 188 195 212 240 292 289 310 275 285 315 311 327 320 309
316 327 337 345 348 358 9 359 354 351 346 306 305 291 295 295 325 296 300 246 203 164 250 272 225 351 56 222 212 221 244 235 219 224 268 278 211 223 238 250 262 274 297 15 344 268 31
306 311 325 333 342 347 349 350 350 346 345 312 300 290 283 294 265 325 306 206 193 196 211 245 54 175 270 216 202 212 226 211 212 222 255 257 278 241 251 279 282 300 41 13 346 287 32
315 311 309 321 330 336 341 345 341 341 343 325 286 292 279 272 267 300 330 317 273 321 208 216 171 224 246 222 210 200 220 222 208 222 214 222 246 265 248 241 252 347 17 347 272 34 26
307 307 308 312 318 333 338 339 341 341 344 339 293 271 295 294 294 296 316 328 26 10 319 331 171 203 223 228 226 220 220 251 227 232 141 180 241 227 226 248 252 17 2 20 12 30 14
293 315 314 312 314 323 332 336 338 340 342 337 280 317 331 266 280 301 291 296 306 300 324 335 327 217 186 216 243 265 213 67 234 262 179 239 267 303 324 65 335 104 44 39 358 351 352